GTSHC FPST-FPPR

Flight info

Callsign GTSHC
Flight time 0h 28m
Altitude 5000
Route DCT
Aircraft TBM9/L-V/N

Departure

Time 2026-04-27 18:54
Airport São Tomé International Airport (FPST)

Arrival

Time 2026-04-27 19:23
Airport Principe Airport (FPPR)
Time Latitude Longitude Altitude Speed Heading
2026-04-27 18:52 0.37562 6.71350 29 ft 0 kts 284°
2026-04-27 18:53 0.37573 6.71325 29 ft 8 kts 316°
2026-04-27 18:53 0.37608 6.71253 30 ft 10 kts
2026-04-27 18:53 0.37706 6.71289 30 ft 22 kts
2026-04-27 18:53 0.37804 6.71276 31 ft 8 kts 113°
2026-04-27 18:54 0.37795 6.71309 31 ft 18 kts 104°
2026-04-27 18:54 0.37711 6.71676 30 ft 88 kts 103°
2026-04-27 18:54 0.37554 6.72383 385 ft 107 kts 104°
2026-04-27 18:54 0.37765 6.73111 837 ft 122 kts 46°
2026-04-27 18:55 0.38563 6.73618 1079 ft 149 kts 26°
2026-04-27 18:55 0.39603 6.73915 1575 ft 157 kts 14°
2026-04-27 18:55 0.40667 6.74152 2185 ft 157 kts 13°
2026-04-27 18:55 0.41745 6.74364 2749 ft 158 kts
2026-04-27 18:56 0.42842 6.74357 3334 ft 158 kts
2026-04-27 18:56 0.43899 6.74652 3900 ft 160 kts 26°
2026-04-27 18:56 0.44865 6.75188 4454 ft 162 kts 28°
2026-04-27 18:56 0.45863 6.75729 4957 ft 168 kts 26°
2026-04-27 18:57 0.46994 6.76325 5007 ft 199 kts 27°
2026-04-27 18:57 0.48292 6.77020 5013 ft 223 kts 28°
2026-04-27 18:57 0.49699 6.77789 4992 ft 238 kts 27°
2026-04-27 18:57 0.51182 6.78604 4890 ft 244 kts 28°
2026-04-27 18:58 0.52655 6.79403 4873 ft 238 kts 27°
2026-04-27 18:58 0.54102 6.80174 4868 ft 234 kts 27°
2026-04-27 18:58 0.55530 6.80942 4869 ft 232 kts 28°
2026-04-27 18:58 0.56945 6.81713 4873 ft 231 kts 28°
2026-04-27 18:59 0.58355 6.82484 4870 ft 231 kts 27°
2026-04-27 18:59 0.59762 6.83252 4874 ft 230 kts 27°
2026-04-27 18:59 0.61170 6.84018 4871 ft 230 kts 27°
2026-04-27 18:59 0.62575 6.84779 4872 ft 230 kts 28°
2026-04-27 19:00 0.63978 6.85539 4873 ft 229 kts 28°
2026-04-27 19:00 0.65379 6.86302 4875 ft 229 kts 28°
2026-04-27 19:00 0.66778 6.87064 4876 ft 229 kts 28°
2026-04-27 19:00 0.68176 6.87823 4879 ft 229 kts 28°
2026-04-27 19:01 0.69573 6.88583 4874 ft 229 kts 28°
2026-04-27 19:01 0.70953 6.89333 4873 ft 229 kts 28°
2026-04-27 19:01 0.72351 6.90093 4876 ft 229 kts 28°
2026-04-27 19:01 0.73749 6.90853 4878 ft 229 kts 28°
2026-04-27 19:02 0.75146 6.91613 4878 ft 229 kts 28°
2026-04-27 19:02 0.76544 6.92371 4877 ft 229 kts 28°
2026-04-27 19:02 0.77942 6.93129 4873 ft 228 kts 28°
2026-04-27 19:02 0.79339 6.93889 4878 ft 228 kts 28°
2026-04-27 19:03 0.80734 6.94649 4875 ft 228 kts 28°
2026-04-27 19:03 0.82130 6.95408 4875 ft 228 kts 28°
2026-04-27 19:03 0.83524 6.96166 4874 ft 228 kts 28°
2026-04-27 19:03 0.84449 6.96668 4872 ft 228 kts 28°
2026-04-27 19:04 0.86318 6.97683 4878 ft 228 kts 28°
2026-04-27 19:04 0.87712 6.98442 4876 ft 228 kts 28°
2026-04-27 19:04 0.89109 6.99201 4878 ft 228 kts 28°
2026-04-27 19:04 0.90506 6.99960 4874 ft 229 kts 28°
2026-04-27 19:05 0.91902 7.00719 4873 ft 229 kts 28°
2026-04-27 19:05 0.93300 7.01479 4876 ft 229 kts 28°
2026-04-27 19:05 0.94697 7.02237 4874 ft 229 kts 28°
2026-04-27 19:05 0.96073 7.02985 4873 ft 229 kts 28°
2026-04-27 19:06 0.97447 7.03732 5028 ft 229 kts 28°
2026-04-27 19:06 0.98846 7.04493 4898 ft 228 kts 28°
2026-04-27 19:06 1.00240 7.05252 4898 ft 228 kts 28°
2026-04-27 19:06 1.01637 7.06011 4898 ft 229 kts 28°
2026-04-27 19:07 1.03038 7.06773 4898 ft 229 kts 28°
2026-04-27 19:07 1.04440 7.07534 4898 ft 229 kts 28°
2026-04-27 19:07 1.05842 7.08296 4898 ft 229 kts 28°
2026-04-27 19:07 1.07243 7.09058 4898 ft 229 kts 28°
2026-04-27 19:08 1.08647 7.09821 4899 ft 229 kts 28°
2026-04-27 19:08 1.10051 7.10583 4896 ft 229 kts 28°
2026-04-27 19:08 1.11453 7.11346 4896 ft 229 kts 28°
2026-04-27 19:08 1.12854 7.12107 4896 ft 230 kts 28°
2026-04-27 19:09 1.14240 7.12860 4893 ft 229 kts 28°
2026-04-27 19:09 1.15639 7.13621 4899 ft 229 kts 28°
2026-04-27 19:09 1.17040 7.14383 4899 ft 229 kts 28°
2026-04-27 19:09 1.18441 7.15145 4899 ft 229 kts 28°
2026-04-27 19:10 1.19842 7.15906 4899 ft 229 kts 28°
2026-04-27 19:10 1.21243 7.16667 4896 ft 229 kts 28°
2026-04-27 19:10 1.22643 7.17427 4896 ft 229 kts 28°
2026-04-27 19:10 1.23572 7.17932 4896 ft 229 kts 28°
2026-04-27 19:11 1.25446 7.18952 4896 ft 229 kts 28°
2026-04-27 19:11 1.26845 7.19713 4896 ft 229 kts 28°
2026-04-27 19:11 1.28246 7.20473 4896 ft 229 kts 28°
2026-04-27 19:11 1.29646 7.21235 4896 ft 229 kts 28°
2026-04-27 19:12 1.31046 7.21997 4896 ft 229 kts 28°
2026-04-27 19:12 1.32444 7.22757 4896 ft 228 kts 28°
2026-04-27 19:12 1.33833 7.23512 4895 ft 226 kts 28°
2026-04-27 19:12 1.35216 7.24263 4894 ft 226 kts 28°
2026-04-27 19:13 1.36594 7.25011 4894 ft 226 kts 28°
2026-04-27 19:13 1.37973 7.25761 4896 ft 225 kts 28°
2026-04-27 19:13 1.39355 7.26504 4891 ft 225 kts 26°
2026-04-27 19:13 1.40795 7.27177 4716 ft 232 kts 23°
2026-04-27 19:14 1.42293 7.27835 4470 ft 238 kts 23°
2026-04-27 19:14 1.43801 7.28494 4237 ft 241 kts 22°
2026-04-27 19:14 1.45302 7.29148 3995 ft 227 kts 22°
2026-04-27 19:14 1.46737 7.29757 3738 ft 217 kts 22°
2026-04-27 19:15 1.48091 7.30329 3496 ft 212 kts 22°
2026-04-27 19:15 1.49444 7.30903 3257 ft 211 kts 22°
2026-04-27 19:15 1.50788 7.31477 3013 ft 210 kts 22°
2026-04-27 19:15 1.52128 7.32048 2767 ft 209 kts 22°
2026-04-27 19:16 1.53459 7.32619 2523 ft 207 kts 22°
2026-04-27 19:16 1.54354 7.33002 2368 ft 207 kts 22°
2026-04-27 19:16 1.56197 7.33361 2074 ft 203 kts
2026-04-27 19:16 1.57587 7.33528 1950 ft 198 kts
2026-04-27 19:17 1.58867 7.33743 1818 ft 179 kts 12°
2026-04-27 19:17 1.60030 7.34067 1683 ft 170 kts 17°
2026-04-27 19:17 1.61137 7.34407 1555 ft 165 kts 17°
2026-04-27 19:17 1.62229 7.34740 1415 ft 163 kts 17°
2026-04-27 19:18 1.63298 7.35063 1399 ft 158 kts 17°
2026-04-27 19:18 1.64341 7.35385 1392 ft 156 kts 17°
2026-04-27 19:18 1.65374 7.35702 1394 ft 160 kts 17°
2026-04-27 19:18 1.66493 7.36040 1404 ft 175 kts 16°
2026-04-27 19:19 1.67700 7.36379 1412 ft 183 kts 13°
2026-04-27 19:19 1.68940 7.36645 1404 ft 181 kts 11°
2026-04-27 19:19 1.70048 7.36891 1398 ft 149 kts 21°
2026-04-27 19:19 1.70981 7.37416 1408 ft 157 kts 33°
2026-04-27 19:20 1.71646 7.38263 1406 ft 156 kts 69°
2026-04-27 19:20 1.71986 7.39232 1403 ft 147 kts 73°
2026-04-27 19:20 1.72310 7.40194 1390 ft 145 kts 73°
2026-04-27 19:20 1.72346 7.41124 1329 ft 121 kts 116°
2026-04-27 19:21 1.71710 7.41555 1294 ft 113 kts 180°
2026-04-27 19:21 1.71012 7.41253 1282 ft 111 kts 207°
2026-04-27 19:21 1.70248 7.41156 1183 ft 113 kts 180°
2026-04-27 19:21 1.69456 7.41151 1043 ft 113 kts 182°
2026-04-27 19:22 1.68674 7.41134 899 ft 111 kts 183°
2026-04-27 19:22 1.67928 7.41124 768 ft 103 kts 181°
2026-04-27 19:22 1.67229 7.41115 673 ft 98 kts 181°
2026-04-27 19:22 1.66591 7.41110 566 ft 76 kts 180°
2026-04-27 19:23 1.66215 7.41112 548 ft 6 kts 181°
2026-04-27 19:23 1.66215 7.41102 555 ft 6 kts
2026-04-27 19:23 1.66321 7.41106 556 ft 23 kts
2026-04-27 19:23 1.66450 7.41110 550 ft 10 kts 354°
2026-04-27 19:24 1.66495 7.41167 554 ft 16 kts 76°
2026-04-27 19:24 1.66508 7.41219 551 ft 0 kts 69°